Regional Weather Roundup
Issued by NWS

Home | Current Version | Previous Version | Graphics & Text | Print | Product List | Glossary On
Versions: 1 2 3 4 5 6 7 8 9 10 11 12 13 14 15 16 17 18 19 20 21 22 23 24 25 26 27 28 29 30 31 32 33 34 35 36 37 38 39 40 41 42 43 44 45 46 47 48 49 50
000
ASUS43 KOAX 221802
RWRNE

WEATHER ROUNDUP FOR NEBRASKA
NATIONAL WEATHER SERVICE OMAHA NE
100 PM CDT WED OCT 22 2014

NOTES: SATELLITE DATA IS BEING USED TO AUGMENT CLOUD COVER ABOVE
       12000 FEET.
       "FAIR" INDICATES FEW OR NO CLOUDS BELOW 12,000 FEET WITH NO
       SIGNIFICANT WEATHER AND/OR OBSTRUCTIONS TO VISIBILITY.

  * THESE STATIONS DO NOT REPORT WEATHER SUCH AS RAIN...SNOW OR FOG.

NEZ001>004-019>022-054>056-221900-
NEBRASKA PANHANDLE

CITY           SKY/WX    TMP DP  RH WIND       PRES   REMARKS
SCOTTSBLUFF    SUNNY     62  35  36 NW14G22   30.09S
6HR MIN TEMP:  46; 6HR MAX TEMP:  62;

ALLIANCE       SUNNY     62  50  65 NW16      30.06S
6HR MIN TEMP:  45; 6HR MAX TEMP:  62; 6HR PCP:  0.01;

CHADRON        SUNNY     59  37  44 NW6       30.06S
6HR MIN TEMP:  49; 6HR MAX TEMP:  60;

KIMBALL        SUNNY     60  35  38 N16G23    30.08S
SIDNEY         SUNNY     63  36  36 NW15G24   30.09S
6HR MIN TEMP:  47; 6HR MAX TEMP:  63; 6HR PCP: TRACE;

$$

NEZ057>060-069>072-079>082-221900-
SOUTHWEST NEBRASKA

CITY           SKY/WX    TMP DP  RH WIND       PRES   REMARKS
NORTH PLATTE   CLOUDY    62  53  72 E5        30.03R
6HR MIN TEMP:  54; 6HR MAX TEMP:  62; 6HR PCP:  0.03;

IMPERIAL       MOSUNNY   69  49  48 N7        30.04S
6HR MIN TEMP:  50; 6HR MAX TEMP:  69; 6HR PCP: TRACE;

LEXINGTON      CLOUDY    64  54  68 SW7       30.02S
MCCOOK         CLOUDY    63  51  65 E3        30.01F
6HR MIN TEMP:  56; 6HR MAX TEMP:  63; 6HR PCP: TRACE;

OGALLALA       SUNNY     68  50  52 NW5       30.05S
$$

NEZ005>010-023>029-035>040-094-221900-
NORTH CENTRAL NEBRASKA

CITY           SKY/WX    TMP DP  RH WIND       PRES   REMARKS
VALENTINE      PTSUNNY   58  47  66 NW12      30.02R
6HR MIN TEMP:  51; 6HR MAX TEMP:  61; 6HR PCP:  0.10;

AINSWORTH      CLOUDY    54  49  83 NW10      30.02R
BROKEN BOW     HVY RAIN  60  56  86 E6        30.01S FOG
6HR MIN TEMP:  56; 6HR MAX TEMP:  66; 6HR PCP:  0.10;

O`NEILL        CLOUDY    66  54  66 NW17      29.99S
ORD            CLOUDY    66  53  63 S8        29.99S
6HR MIN TEMP:  54; 6HR MAX TEMP:  66;

THEDFORD       CLOUDY    60  52  75 N7        30.04R
$$

NEZ041-046>049-061>064-073>077-083>087-221900-
SOUTH CENTRAL NEBRASKA

CITY           SKY/WX    TMP DP  RH WIND       PRES   REMARKS
GRAND ISLAND   CLOUDY    72  55  55 SW17      30.01S
6HR MIN TEMP:  56; 6HR MAX TEMP:  73;

AURORA         FAIR      76  51  41 S17       30.00F
HASTINGS       PTSUNNY   73  52  47 S15G24    30.00F
6HR MIN TEMP:  55; 6HR MAX TEMP:  74;

HEBRON         FAIR      76  52  42 S16G24    30.03F
HOLDREGE       LGT RAIN  61  56  83 S13       30.01F
KEARNEY *      CLOUDY    64  55  72 S16       30.02F
YORK           FAIR      75  54  46 S21       30.02F
$$

NEZ011>018-030>034-042>045-221900-
NORTHEAST NEBRASKA

CITY           SKY/WX    TMP DP  RH WIND       PRES   REMARKS
NORFOLK        FAIR      74  53  48 S16G25    29.97F
6HR MIN TEMP:  54; 6HR MAX TEMP:  76;

ALBION         PTSUNNY   70  55  57 S17       29.99F
BLAIR          FAIR      70  50  49 S13G18    30.06F
COLUMBUS *     FAIR      75  52  43 S17G23    30.02F
FREMONT        FAIR      73  52  47 SE13G21   30.04F
TEKAMAH        FAIR      73  51  46 S15       30.04F
6HR MIN TEMP:  52; 6HR MAX TEMP:  73;

WAYNE          FAIR      73  51  46 S20G26    29.99F
$$

NEZ050>053-065>068-078-088>093-221900-
SOUTHEAST NEBRASKA

CITY           SKY/WX    TMP DP  RH WIND       PRES   REMARKS
LINCOLN        FAIR      78  54  43 S20       30.04F
6HR MIN TEMP:  53; 6HR MAX TEMP:  78;

OMAHA EPPLEY   FAIR      70  50  49 S18       30.07F
6HR MIN TEMP:  54; 6HR MAX TEMP:  70;

BEATRICE       FAIR      76  55  48 S17G23    30.05F
FALLS CITY     LGT RAIN  72  54  53 S16       30.10F
6HR MIN TEMP:  51; 6HR MAX TEMP:  72; 6HR PCP: TRACE;

NEBRASKA CITY  FAIR      70  47  43 S15       30.09F
PLATTSMOUTH    FAIR      69  48  47 SE16      30.08F
$$

NEZ044-045-051>053-067-221900-
OMAHA AREA

CITY           SKY/WX    TMP DP  RH WIND       PRES   REMARKS
OMAHA EPPLEY   FAIR      70  50  49 S18       30.07F
6HR MIN TEMP:  54; 6HR MAX TEMP:  70;

BLAIR          FAIR      70  50  49 S13G18    30.06F
FREMONT        FAIR      73  52  47 SE13G21   30.04F
MILLARD        FAIR      69  53  55 SE13      30.06F
OFFUTT AFB     FAIR      70  53  54 SE16      30.07F
PLATTSMOUTH    FAIR      69  48  47 SE16      30.08F
WAHOO          FAIR      75  50  42 S18       30.04F
$$



USA.gov is the U.S. government's official web portal to all federal, state and local government web resources and services.